Time,TemperatureF,DewpointF,PressureIn,WindDirection,WindDirectionDegrees,WindSpeedMPH,WindSpeedGustMPH,Humidity,HourlyPrecipIn,Conditions,Clouds,dailyrainin,SoftwareType,DateUTC
2013-01-06 00:00:00,32.1,25.7,30.12,West,259,0.0,2.0,77,0.00,,,0.00,LWC V2.11 B50,2013-01-06 05:00:00,
2013-01-06 00:02:00,32.1,25.7,30.12,SSW,205,1.0,2.0,77,0.00,,,0.00,LWC V2.11 B50,2013-01-06 05:02:00,
2013-01-06 00:08:00,32.2,25.8,30.12,SE,145,0.0,4.0,77,0.00,,,0.00,LWC V2.11 B50,2013-01-06 05:08:00,
2013-01-06 00:13:00,32.2,25.8,30.12,SSW,202,1.0,3.0,77,0.00,,,0.00,LWC V2.11 B50,2013-01-06 05:13:00,
2013-01-06 00:15:00,32.3,25.9,30.12,SSW,203,4.0,8.0,77,0.00,,,0.00,LWC V2.11 B50,2013-01-06 05:15:00,
2013-01-06 00:20:00,32.4,25.7,30.12,SW,226,4.0,5.0,76,0.00,,,0.00,LWC V2.11 B50,2013-01-06 05:20:00,
2013-01-06 00:25:00,32.5,25.8,30.12,West,277,0.0,4.0,76,0.00,,,0.00,LWC V2.11 B50,2013-01-06 05:25:00,
2013-01-06 00:30:00,32.5,25.8,30.11,SW,219,1.0,4.0,76,0.00,,,0.00,LWC V2.11 B50,2013-01-06 05:30:00,
2013-01-06 00:34:00,32.6,25.9,30.11,South,169,6.0,8.0,76,0.00,,,0.00,LWC V2.11 B50,2013-01-06 05:34:00,
2013-01-06 00:39:00,32.7,26.0,30.11,WSW,239,2.0,3.0,76,0.00,,,0.00,LWC V2.11 B50,2013-01-06 05:39:00,
2013-01-06 00:44:00,32.8,26.1,30.11,West,278,1.0,4.0,76,0.00,,,0.00,LWC V2.11 B50,2013-01-06 05:44:00,
2013-01-06 00:49:00,32.8,26.1,30.11,SW,228,0.0,7.0,76,0.00,,,0.00,LWC V2.11 B50,2013-01-06 05:49:00,
2013-01-06 00:54:00,32.8,26.1,30.10,WSW,252,2.0,4.0,76,0.00,,,0.00,LWC V2.11 B50,2013-01-06 05:54:00,
2013-01-06 00:59:00,32.8,26.1,30.10,SW,236,0.0,2.0,76,0.00,,,0.00,LWC V2.11 B50,2013-01-06 05:59:00,
2013-01-06 01:04:00,32.8,26.1,30.10,WSW,255,1.0,4.0,76,0.00,,,0.00,LWC V2.11 B50,2013-01-06 06:04:00,
2013-01-06 01:09:00,32.7,26.0,30.10,SSW,208,6.0,6.0,76,0.00,,,0.00,LWC V2.11 B50,2013-01-06 06:09:00,
2013-01-06 01:14:00,32.7,26.0,30.10,SSW,197,1.0,11.0,76,0.00,,,0.00,LWC V2.11 B50,2013-01-06 06:14:00,
2013-01-06 01:19:00,32.7,26.0,30.10,SW,228,6.0,7.0,76,0.00,,,0.00,LWC V2.11 B50,2013-01-06 06:19:00,
2013-01-06 01:24:00,32.8,26.1,30.09,SW,219,2.0,6.0,76,0.00,,,0.00,LWC V2.11 B50,2013-01-06 06:24:00,
2013-01-06 01:29:00,32.7,26.0,30.09,WNW,287,3.0,5.0,76,0.00,,,0.00,LWC V2.11 B50,2013-01-06 06:29:00,
2013-01-06 01:34:00,32.8,26.1,30.09,WNW,294,0.0,4.0,76,0.00,,,0.00,LWC V2.11 B50,2013-01-06 06:34:00,
2013-01-06 01:39:00,32.7,26.0,30.09,WNW,289,1.0,4.0,76,0.00,,,0.00,LWC V2.11 B50,2013-01-06 06:39:00,
2013-01-06 01:44:00,32.8,26.1,30.09,NW,320,1.0,8.0,76,0.00,,,0.00,LWC V2.11 B50,2013-01-06 06:44:00,
2013-01-06 01:49:00,32.8,26.1,30.09,SW,219,1.0,6.0,76,0.00,,,0.00,LWC V2.11 B50,2013-01-06 06:49:00,
2013-01-06 01:54:00,32.7,26.3,30.09,SSW,212,3.0,9.0,77,0.00,,,0.00,LWC V2.11 B50,2013-01-06 06:54:00,
2013-01-06 01:59:00,32.7,26.3,30.08,SW,215,6.0,7.0,77,0.00,,,0.00,LWC V2.11 B50,2013-01-06 06:59:00,
2013-01-06 02:04:00,32.7,26.3,30.09,SSW,205,6.0,12.0,77,0.00,,,0.00,LWC V2.11 B50,2013-01-06 07:04:00,
2013-01-06 02:09:00,32.7,26.3,30.08,SSW,210,2.0,7.0,77,0.00,,,0.00,LWC V2.11 B50,2013-01-06 07:09:00,
2013-01-06 02:14:00,32.6,26.2,30.08,WNW,294,1.0,6.0,77,0.00,,,0.00,LWC V2.11 B50,2013-01-06 07:14:00,
2013-01-06 02:19:00,32.6,26.5,30.08,WSW,238,4.0,12.0,78,0.00,,,0.00,LWC V2.11 B50,2013-01-06 07:19:00,
2013-01-06 02:24:00,32.6,26.5,30.08,WSW,243,7.0,7.0,78,0.00,,,0.00,LWC V2.11 B50,2013-01-06 07:24:00,
2013-01-06 02:29:00,32.6,26.5,30.08,West,281,3.0,6.0,78,0.00,,,0.00,LWC V2.11 B50,2013-01-06 07:29:00,
2013-01-06 02:34:00,32.5,26.7,30.08,West,277,1.0,4.0,79,0.00,,,0.00,LWC V2.11 B50,2013-01-06 07:34:00,
2013-01-06 02:39:00,32.4,26.9,30.08,WNW,294,5.0,9.0,80,0.00,,,0.00,LWC V2.11 B50,2013-01-06 07:39:00,
2013-01-06 02:44:00,32.3,27.1,30.08,SW,219,2.0,7.0,81,0.00,,,0.00,LWC V2.11 B50,2013-01-06 07:44:00,
2013-01-06 02:49:00,32.2,27.3,30.08,WSW,246,1.0,5.0,82,0.00,,,0.00,LWC V2.11 B50,2013-01-06 07:49:00,
2013-01-06 02:54:00,32.1,26.9,30.08,SW,225,2.0,5.0,81,0.00,,,0.00,LWC V2.11 B50,2013-01-06 07:54:00,
2013-01-06 02:59:00,32.2,27.0,30.08,SW,222,3.0,6.0,81,0.00,,,0.00,LWC V2.11 B50,2013-01-06 07:59:00,
2013-01-06 03:04:00,32.3,26.8,30.08,SSE,164,0.0,2.0,80,0.00,,,0.00,LWC V2.11 B50,2013-01-06 08:04:00,
2013-01-06 03:09:00,32.4,26.9,30.08,SW,219,8.0,8.0,80,0.00,,,0.00,LWC V2.11 B50,2013-01-06 08:09:00,
2013-01-06 03:14:00,32.5,27.0,30.08,WSW,253,2.0,2.0,80,0.00,,,0.00,LWC V2.11 B50,2013-01-06 08:14:00,
2013-01-06 03:19:00,32.5,26.7,30.08,WNW,290,4.0,4.0,79,0.00,,,0.00,LWC V2.11 B50,2013-01-06 08:19:00,
2013-01-06 03:24:00,32.6,27.1,30.08,WSW,254,1.0,7.0,80,0.00,,,0.00,LWC V2.11 B50,2013-01-06 08:24:00,
2013-01-06 03:29:00,32.6,26.8,30.08,SW,229,1.0,4.0,79,0.00,,,0.00,LWC V2.11 B50,2013-01-06 08:29:00,
2013-01-06 03:34:00,32.6,27.1,30.08,SW,225,0.0,7.0,80,0.00,,,0.00,LWC V2.11 B50,2013-01-06 08:34:00,
2013-01-06 03:39:00,32.5,27.0,30.07,West,280,2.0,5.0,80,0.00,,,0.00,LWC V2.11 B50,2013-01-06 08:39:00,
2013-01-06 03:44:00,32.5,27.0,30.07,SSW,194,2.0,2.0,80,0.00,,,0.00,LWC V2.11 B50,2013-01-06 08:44:00,
2013-01-06 03:49:00,32.6,27.1,30.07,SW,236,6.0,12.0,80,0.00,,,0.00,LWC V2.11 B50,2013-01-06 08:49:00,
2013-01-06 03:54:00,32.7,27.2,30.07,West,277,4.0,4.0,80,0.00,,,0.00,LWC V2.11 B50,2013-01-06 08:54:00,
2013-01-06 03:59:00,32.7,27.2,30.06,WNW,283,2.0,7.0,80,0.00,,,0.00,LWC V2.11 B50,2013-01-06 08:59:00,
2013-01-06 04:04:00,32.7,27.2,30.06,SW,224,5.0,8.0,80,0.00,,,0.00,LWC V2.11 B50,2013-01-06 09:04:00,
2013-01-06 04:09:00,32.8,27.3,30.06,South,187,1.0,8.0,80,0.00,,,0.00,LWC V2.11 B50,2013-01-06 09:09:00,
2013-01-06 04:14:00,32.8,27.3,30.06,SSW,197,5.0,7.0,80,0.00,,,0.00,LWC V2.11 B50,2013-01-06 09:14:00,
2013-01-06 04:19:00,32.8,27.3,30.05,SW,222,3.0,10.0,80,0.00,,,0.00,LWC V2.11 B50,2013-01-06 09:19:00,
2013-01-06 04:24:00,32.8,27.3,30.05,ESE,110,0.0,9.0,80,0.00,,,0.00,LWC V2.11 B50,2013-01-06 09:24:00,
2013-01-06 04:29:00,32.8,27.3,30.05,West,274,1.0,4.0,80,0.00,,,0.00,LWC V2.11 B50,2013-01-06 09:29:00,
2013-01-06 04:34:00,32.8,27.3,30.05,SSW,210,1.0,2.0,80,0.00,,,0.00,LWC V2.11 B50,2013-01-06 09:34:00,
2013-01-06 04:39:00,32.8,27.3,30.05,WSW,257,3.0,3.0,80,0.00,,,0.00,LWC V2.11 B50,2013-01-06 09:39:00,
2013-01-06 04:44:00,32.8,27.3,30.05,WSW,245,5.0,6.0,80,0.00,,,0.00,LWC V2.11 B50,2013-01-06 09:44:00,
2013-01-06 04:49:00,32.9,27.4,30.05,West,274,1.0,11.0,80,0.00,,,0.00,LWC V2.11 B50,2013-01-06 09:49:00,
2013-01-06 04:54:00,33.0,27.5,30.05,WNW,288,7.0,7.0,80,0.00,,,0.00,LWC V2.11 B50,2013-01-06 09:54:00,
2013-01-06 04:59:00,33.1,27.6,30.05,WNW,287,3.0,7.0,80,0.00,,,0.00,LWC V2.11 B50,2013-01-06 09:59:00,
2013-01-06 05:04:00,33.1,27.6,30.04,West,259,4.0,10.0,80,0.00,,,0.00,LWC V2.11 B50,2013-01-06 10:04:00,
2013-01-06 05:09:00,33.1,27.6,30.04,WSW,257,0.0,2.0,80,0.00,,,0.00,LWC V2.11 B50,2013-01-06 10:09:00,
2013-01-06 05:14:00,32.9,27.4,30.04,SW,236,0.0,2.0,80,0.00,,,0.00,LWC V2.11 B50,2013-01-06 10:14:00,
2013-01-06 05:19:00,32.7,27.2,30.04,SSW,210,0.0,4.0,80,0.00,,,0.00,LWC V2.11 B50,2013-01-06 10:19:00,
2013-01-06 05:24:00,32.5,27.3,30.04,SW,232,0.0,5.0,81,0.00,,,0.00,LWC V2.11 B50,2013-01-06 10:24:00,
2013-01-06 05:29:00,32.5,27.3,30.04,SW,235,0.0,5.0,81,0.00,,,0.00,LWC V2.11 B50,2013-01-06 10:29:00,
2013-01-06 05:34:00,32.5,27.3,30.04,SSW,205,2.0,3.0,81,0.00,,,0.00,LWC V2.11 B50,2013-01-06 10:34:00,
2013-01-06 05:39:00,32.5,27.3,30.03,SW,217,3.0,4.0,81,0.00,,,0.00,LWC V2.11 B50,2013-01-06 10:39:00,
2013-01-06 05:44:00,32.5,27.3,30.03,WNW,284,2.0,7.0,81,0.00,,,0.00,LWC V2.11 B50,2013-01-06 10:44:00,
2013-01-06 05:49:00,32.6,27.4,30.03,SSW,204,1.0,5.0,81,0.00,,,0.00,LWC V2.11 B50,2013-01-06 10:49:00,
2013-01-06 05:54:00,32.6,27.4,30.03,SSE,150,0.0,3.0,81,0.00,,,0.00,LWC V2.11 B50,2013-01-06 10:54:00,
2013-01-06 05:59:00,32.6,27.4,30.03,SW,229,0.0,4.0,81,0.00,,,0.00,LWC V2.11 B50,2013-01-06 10:59:00,
2013-01-06 06:04:00,32.6,27.4,30.03,SSW,211,4.0,6.0,81,0.00,,,0.00,LWC V2.11 B50,2013-01-06 11:04:00,
2013-01-06 06:09:00,32.6,27.4,30.03,SW,222,0.0,2.0,81,0.00,,,0.00,LWC V2.11 B50,2013-01-06 11:09:00,
2013-01-06 06:14:00,32.6,27.7,30.03,SSW,204,0.0,9.0,82,0.00,,,0.00,LWC V2.11 B50,2013-01-06 11:14:00,
2013-01-06 06:19:00,32.6,27.7,30.03,West,277,1.0,7.0,82,0.00,,,0.00,LWC V2.11 B50,2013-01-06 11:19:00,
2013-01-06 06:24:00,32.6,27.7,30.04,SW,236,1.0,6.0,82,0.00,,,0.00,LWC V2.11 B50,2013-01-06 11:24:00,
2013-01-06 06:29:00,32.5,27.9,30.03,SW,236,0.0,4.0,83,0.00,,,0.00,LWC V2.11 B50,2013-01-06 11:29:00,
2013-01-06 06:34:00,32.5,27.9,30.04,SW,219,4.0,6.0,83,0.00,,,0.00,LWC V2.11 B50,2013-01-06 11:34:00,
2013-01-06 06:39:00,32.4,28.1,30.04,WNW,301,0.0,4.0,84,0.00,,,0.00,LWC V2.11 B50,2013-01-06 11:39:00,
2013-01-06 06:44:00,32.4,28.1,30.04,SE,139,1.0,7.0,84,0.00,,,0.00,LWC V2.11 B50,2013-01-06 11:44:00,
2013-01-06 06:49:00,32.3,28.0,30.04,SSW,212,2.0,10.0,84,0.00,,,0.00,LWC V2.11 B50,2013-01-06 11:49:00,
2013-01-06 06:54:00,32.3,28.3,30.04,SSW,208,1.0,7.0,85,0.00,,,0.00,LWC V2.11 B50,2013-01-06 11:54:00,
2013-01-06 06:59:00,32.2,28.2,30.03,SW,225,3.0,7.0,85,0.00,,,0.00,LWC V2.11 B50,2013-01-06 11:59:00,
2013-01-06 07:04:00,32.1,28.4,30.03,SSW,208,0.0,5.0,86,0.00,,,0.00,LWC V2.11 B50,2013-01-06 12:04:00,
2013-01-06 07:09:00,32.0,28.3,30.03,WNW,291,3.0,5.0,86,0.00,,,0.00,LWC V2.11 B50,2013-01-06 12:09:00,
2013-01-06 07:14:00,31.9,28.2,30.03,West,264,0.0,2.0,86,0.00,,,0.00,LWC V2.11 B50,2013-01-06 12:14:00,
2013-01-06 07:19:00,31.8,28.4,30.03,SSW,201,2.0,6.0,87,0.00,,,0.00,LWC V2.11 B50,2013-01-06 12:19:00,
2013-01-06 07:24:00,31.8,28.4,30.03,SSE,154,2.0,8.0,87,0.00,,,0.00,LWC V2.11 B50,2013-01-06 12:24:00,
2013-01-06 07:29:00,31.7,28.3,30.02,WNW,288,2.0,6.0,87,0.00,,,0.00,LWC V2.11 B50,2013-01-06 12:29:00,
2013-01-06 07:34:00,31.8,28.4,30.02,SSW,198,0.0,3.0,87,0.00,,,0.00,LWC V2.11 B50,2013-01-06 12:34:00,
2013-01-06 07:39:00,31.7,28.3,30.02,SSW,210,3.0,5.0,87,0.00,,,0.00,LWC V2.11 B50,2013-01-06 12:39:00,
2013-01-06 07:44:00,31.6,28.5,30.02,SSW,209,1.0,2.0,88,0.00,,,0.00,LWC V2.11 B50,2013-01-06 12:44:00,
2013-01-06 07:49:00,31.6,28.5,30.02,SW,219,2.0,11.0,88,0.00,,,0.00,LWC V2.11 B50,2013-01-06 12:49:00,
2013-01-06 07:54:00,31.7,28.6,30.02,SE,132,2.0,8.0,88,0.00,,,0.00,LWC V2.11 B50,2013-01-06 12:54:00,
2013-01-06 07:59:00,31.7,28.6,30.01,SSW,203,2.0,5.0,88,0.00,,,0.00,LWC V2.11 B50,2013-01-06 12:59:00,
2013-01-06 08:04:00,31.6,28.5,30.01,SSW,211,2.0,6.0,88,0.00,,,0.00,LWC V2.11 B50,2013-01-06 13:04:00,
2013-01-06 08:09:00,31.6,28.5,30.02,West,278,0.0,2.0,88,0.00,,,0.00,LWC V2.11 B50,2013-01-06 13:09:00,
2013-01-06 08:14:00,31.6,28.5,30.02,West,268,0.0,3.0,88,0.00,,,0.00,LWC V2.11 B50,2013-01-06 13:14:00,
2013-01-06 08:19:00,31.7,28.3,30.01,SW,217,2.0,4.0,87,0.00,,,0.00,LWC V2.11 B50,2013-01-06 13:19:00,
2013-01-06 08:24:00,31.7,28.3,30.01,SSW,207,1.0,4.0,87,0.00,,,0.00,LWC V2.11 B50,2013-01-06 13:24:00,
2013-01-06 08:29:00,31.7,28.3,30.02,SSW,201,1.0,4.0,87,0.00,,,0.00,LWC V2.11 B50,2013-01-06 13:29:00,
2013-01-06 08:34:00,31.8,28.4,30.02,SW,220,3.0,5.0,87,0.00,,,0.00,LWC V2.11 B50,2013-01-06 13:34:00,
2013-01-06 08:39:00,31.8,28.4,30.02,SSE,157,3.0,5.0,87,0.00,,,0.00,LWC V2.11 B50,2013-01-06 13:39:00,
2013-01-06 08:44:00,31.8,28.7,30.02,South,188,5.0,5.0,88,0.00,,,0.00,LWC V2.11 B50,2013-01-06 13:44:00,
2013-01-06 08:49:00,31.8,28.7,30.02,West,274,6.0,7.0,88,0.00,,,0.00,LWC V2.11 B50,2013-01-06 13:49:00,
2013-01-06 08:54:00,31.7,28.6,30.01,SSE,160,1.0,7.0,88,0.00,,,0.00,LWC V2.11 B50,2013-01-06 13:54:00,
2013-01-06 08:59:00,31.7,28.8,30.02,South,186,2.0,5.0,89,0.00,,,0.00,LWC V2.11 B50,2013-01-06 13:59:00,
2013-01-06 09:04:00,31.7,28.8,30.02,South,184,8.0,8.0,89,0.00,,,0.00,LWC V2.11 B50,2013-01-06 14:04:00,
2013-01-06 09:09:00,31.7,28.8,30.02,SE,136,0.0,2.0,89,0.00,,,0.00,LWC V2.11 B50,2013-01-06 14:09:00,
2013-01-06 09:14:00,31.8,28.9,30.02,South,179,2.0,2.0,89,0.00,,,0.00,LWC V2.11 B50,2013-01-06 14:14:00,
2013-01-06 09:19:00,31.9,29.0,30.02,SW,236,2.0,5.0,89,0.00,,,0.00,LWC V2.11 B50,2013-01-06 14:19:00,
2013-01-06 09:24:00,32.0,29.1,30.02,SW,236,3.0,8.0,89,0.00,,,0.00,LWC V2.11 B50,2013-01-06 14:24:00,
2013-01-06 09:29:00,32.1,29.2,30.02,SW,219,2.0,7.0,89,0.00,,,0.00,LWC V2.11 B50,2013-01-06 14:29:00,
2013-01-06 09:34:00,32.2,29.3,30.03,SW,221,6.0,8.0,89,0.00,,,0.00,LWC V2.11 B50,2013-01-06 14:34:00,
2013-01-06 09:39:00,32.3,29.4,30.02,SSW,211,1.0,5.0,89,0.00,,,0.00,LWC V2.11 B50,2013-01-06 14:39:00,
2013-01-06 09:44:00,32.4,29.5,30.02,South,186,2.0,5.0,89,0.00,,,0.00,LWC V2.11 B50,2013-01-06 14:44:00,
2013-01-06 09:49:00,32.5,29.3,30.02,SSW,205,7.0,7.0,88,0.00,,,0.00,LWC V2.11 B50,2013-01-06 14:49:00,
2013-01-06 09:54:00,32.5,29.3,30.02,WSW,245,5.0,6.0,88,0.00,,,0.00,LWC V2.11 B50,2013-01-06 14:54:00,
2013-01-06 09:59:00,32.5,29.3,30.02,West,266,2.0,10.0,88,0.00,,,0.00,LWC V2.11 B50,2013-01-06 14:59:00,
2013-01-06 10:04:00,32.5,29.3,30.02,SSW,210,3.0,5.0,88,0.00,,,0.00,LWC V2.11 B50,2013-01-06 15:04:00,
2013-01-06 10:09:00,32.6,29.4,30.02,South,186,2.0,5.0,88,0.00,,,0.00,LWC V2.11 B50,2013-01-06 15:09:00,
2013-01-06 10:14:00,32.7,29.5,30.02,SSW,195,7.0,7.0,88,0.00,,,0.00,LWC V2.11 B50,2013-01-06 15:14:00,
2013-01-06 10:19:00,32.7,29.5,30.02,South,174,2.0,10.0,88,0.00,,,0.00,LWC V2.11 B50,2013-01-06 15:19:00,
2013-01-06 10:24:00,32.9,29.7,30.02,SSE,159,4.0,8.0,88,0.00,,,0.00,LWC V2.11 B50,2013-01-06 15:24:00,
2013-01-06 10:29:00,33.0,29.8,30.02,WNW,285,2.0,4.0,88,0.00,,,0.00,LWC V2.11 B50,2013-01-06 15:29:00,
2013-01-06 10:34:00,33.0,29.6,30.02,South,177,3.0,6.0,87,0.00,,,0.00,LWC V2.11 B50,2013-01-06 15:34:00,
2013-01-06 10:39:00,33.1,29.7,30.03,SSW,211,3.0,9.0,87,0.00,,,0.00,LWC V2.11 B50,2013-01-06 15:39:00,
2013-01-06 10:44:00,33.1,29.7,30.03,SSE,166,0.0,6.0,87,0.00,,,0.00,LWC V2.11 B50,2013-01-06 15:44:00,
2013-01-06 10:49:00,33.2,29.8,30.02,SW,232,0.0,6.0,87,0.00,,,0.00,LWC V2.11 B50,2013-01-06 15:49:00,
2013-01-06 10:54:00,33.3,29.9,30.02,SSW,200,3.0,7.0,87,0.00,,,0.00,LWC V2.11 B50,2013-01-06 15:54:00,
2013-01-06 10:59:00,33.4,30.0,30.02,North,353,1.0,3.0,87,0.00,,,0.00,LWC V2.11 B50,2013-01-06 15:59:00,
2013-01-06 11:04:00,33.5,30.1,30.02,South,188,1.0,4.0,87,0.00,,,0.00,LWC V2.11 B50,2013-01-06 16:04:00,
2013-01-06 11:09:00,33.6,30.2,30.01,WSW,253,1.0,8.0,87,0.00,,,0.00,LWC V2.11 B50,2013-01-06 16:09:00,
2013-01-06 11:14:00,33.7,30.2,30.01,SSE,167,0.0,3.0,87,0.00,,,0.00,LWC V2.11 B50,2013-01-06 16:14:00,
2013-01-06 11:19:00,33.9,30.2,30.01,WSW,256,1.0,5.0,86,0.00,,,0.00,LWC V2.11 B50,2013-01-06 16:19:00,
2013-01-06 11:24:00,34.0,30.3,30.01,ENE,65,1.0,9.0,86,0.00,,,0.00,LWC V2.11 B50,2013-01-06 16:24:00,
2013-01-06 11:29:00,34.1,30.4,30.00,SW,228,1.0,4.0,86,0.00,,,0.00,LWC V2.11 B50,2013-01-06 16:29:00,
2013-01-06 11:34:00,34.4,30.7,30.01,WSW,248,2.0,8.0,86,0.00,,,0.00,LWC V2.11 B50,2013-01-06 16:34:00,
2013-01-06 11:39:00,34.5,30.8,30.00,SSW,200,2.0,3.0,86,0.00,,,0.00,LWC V2.11 B50,2013-01-06 16:39:00,
2013-01-06 11:44:00,34.7,30.7,30.00,SSW,211,0.0,7.0,85,0.00,,,0.00,LWC V2.11 B50,2013-01-06 16:44:00,
2013-01-06 11:49:00,34.7,30.7,30.00,West,277,4.0,6.0,85,0.00,,,0.00,LWC V2.11 B50,2013-01-06 16:49:00,
2013-01-06 11:54:00,34.8,30.8,29.99,SSW,210,1.0,7.0,85,0.00,,,0.00,LWC V2.11 B50,2013-01-06 16:54:00,
2013-01-06 11:59:00,34.8,30.8,29.99,South,172,0.0,5.0,85,0.00,,,0.00,LWC V2.11 B50,2013-01-06 16:59:00,
2013-01-06 12:04:00,34.9,30.6,29.99,SSW,204,7.0,8.0,84,0.00,,,0.00,LWC V2.11 B50,2013-01-06 17:04:00,
2013-01-06 12:09:00,34.9,30.6,29.99,SW,236,1.0,6.0,84,0.00,,,0.00,LWC V2.11 B50,2013-01-06 17:09:00,
2013-01-06 12:14:00,34.9,30.6,29.98,SSW,200,4.0,12.0,84,0.00,,,0.00,LWC V2.11 B50,2013-01-06 17:14:00,
2013-01-06 12:19:00,34.8,30.5,29.98,South,174,1.0,4.0,84,0.00,,,0.00,LWC V2.11 B50,2013-01-06 17:19:00,
2013-01-06 12:24:00,34.9,30.6,29.98,SW,222,6.0,10.0,84,0.00,,,0.00,LWC V2.11 B50,2013-01-06 17:24:00,
2013-01-06 12:29:00,34.9,30.6,29.97,South,170,3.0,5.0,84,0.00,,,0.00,LWC V2.11 B50,2013-01-06 17:29:00,
2013-01-06 12:34:00,34.9,30.6,29.97,SW,225,5.0,11.0,84,0.00,,,0.00,LWC V2.11 B50,2013-01-06 17:34:00,
2013-01-06 12:39:00,35.1,30.8,29.97,SSW,211,5.0,5.0,84,0.00,,,0.00,LWC V2.11 B50,2013-01-06 17:39:00,
2013-01-06 12:44:00,35.1,30.5,29.97,SW,222,6.0,6.0,83,0.00,,,0.00,LWC V2.11 B50,2013-01-06 17:44:00,
2013-01-06 12:49:00,35.1,30.5,29.97,SW,220,11.0,11.0,83,0.00,,,0.00,LWC V2.11 B50,2013-01-06 17:49:00,
2013-01-06 12:54:00,35.2,30.6,29.96,SW,228,5.0,8.0,83,0.00,,,0.00,LWC V2.11 B50,2013-01-06 17:54:00,
2013-01-06 12:59:00,35.2,30.6,29.96,SW,233,8.0,8.0,83,0.00,,,0.00,LWC V2.11 B50,2013-01-06 17:59:00,
2013-01-06 13:04:00,35.2,30.3,29.96,West,259,1.0,6.0,82,0.00,,,0.00,LWC V2.11 B50,2013-01-06 18:04:00,
2013-01-06 13:09:00,35.3,30.4,29.96,SSW,194,4.0,11.0,82,0.00,,,0.00,LWC V2.11 B50,2013-01-06 18:09:00,
2013-01-06 13:14:00,35.3,30.4,29.96,SW,232,0.0,5.0,82,0.00,,,0.00,LWC V2.11 B50,2013-01-06 18:14:00,
2013-01-06 13:19:00,35.3,30.4,29.95,ENE,72,1.0,8.0,82,0.00,,,0.00,LWC V2.11 B50,2013-01-06 18:19:00,
2013-01-06 13:24:00,35.4,30.5,29.95,SSW,211,1.0,5.0,82,0.00,,,0.00,LWC V2.11 B50,2013-01-06 18:24:00,
2013-01-06 13:29:00,35.4,30.5,29.95,South,190,2.0,4.0,82,0.00,,,0.01,LWC V2.11 B50,2013-01-06 18:29:00,
2013-01-06 13:34:00,35.4,30.5,29.95,WSW,239,0.0,6.0,82,0.00,,,0.01,LWC V2.11 B50,2013-01-06 18:34:00,
2013-01-06 13:39:00,35.4,30.2,29.95,WNW,301,1.0,11.0,81,0.00,,,0.01,LWC V2.11 B50,2013-01-06 18:39:00,
2013-01-06 13:44:00,35.3,30.4,29.95,West,281,0.0,4.0,82,0.00,,,0.01,LWC V2.11 B50,2013-01-06 18:44:00,
2013-01-06 13:49:00,35.3,30.4,29.95,SW,228,1.0,8.0,82,0.00,,,0.01,LWC V2.11 B50,2013-01-06 18:49:00,
2013-01-06 13:54:00,35.3,30.4,29.95,SW,235,1.0,1.0,82,0.00,,,0.01,LWC V2.11 B50,2013-01-06 18:54:00,
2013-01-06 13:59:00,35.3,30.1,29.95,SSW,208,1.0,3.0,81,0.00,,,0.01,LWC V2.11 B50,2013-01-06 18:59:00,
2013-01-06 14:04:00,35.3,30.1,29.96,West,263,2.0,3.0,81,0.00,,,0.01,LWC V2.11 B50,2013-01-06 19:04:00,
2013-01-06 14:09:00,35.3,30.4,29.96,West,266,1.0,6.0,82,0.00,,,0.01,LWC V2.11 B50,2013-01-06 19:09:00,
2013-01-06 14:14:00,35.2,30.3,29.96,WNW,292,1.0,6.0,82,0.00,,,0.01,LWC V2.11 B50,2013-01-06 19:14:00,
2013-01-06 14:19:00,35.1,30.2,29.96,West,274,3.0,6.0,82,0.00,,,0.01,LWC V2.11 B50,2013-01-06 19:19:00,
2013-01-06 14:24:00,35.1,30.2,29.96,West,278,3.0,4.0,82,0.00,,,0.01,LWC V2.11 B50,2013-01-06 19:24:00,
2013-01-06 14:29:00,35.1,30.2,29.96,West,270,0.0,4.0,82,0.00,,,0.01,LWC V2.11 B50,2013-01-06 19:29:00,
2013-01-06 14:34:00,35.1,30.2,29.96,WSW,252,0.0,1.0,82,0.00,,,0.01,LWC V2.11 B50,2013-01-06 19:34:00,
2013-01-06 14:39:00,35.1,30.2,29.96,SW,226,3.0,6.0,82,0.00,,,0.02,LWC V2.11 B50,2013-01-06 19:39:00,
2013-01-06 14:44:00,35.0,30.1,29.97,WSW,245,0.0,5.0,82,0.00,,,0.02,LWC V2.11 B50,2013-01-06 19:44:00,
2013-01-06 14:49:00,35.0,30.4,29.97,SW,224,1.0,5.0,83,0.00,,,0.02,LWC V2.11 B50,2013-01-06 19:49:00,
2013-01-06 14:54:00,35.0,30.4,29.97,WSW,250,3.0,5.0,83,0.00,,,0.02,LWC V2.11 B50,2013-01-06 19:54:00,
2013-01-06 14:59:00,34.9,30.3,29.97,South,188,3.0,5.0,83,0.00,,,0.02,LWC V2.11 B50,2013-01-06 19:59:00,
2013-01-06 15:05:00,34.9,30.3,29.97,WSW,245,0.0,7.0,83,0.00,,,0.02,LWC V2.11 B50,2013-01-06 20:05:00,
2013-01-06 15:10:00,34.9,30.3,29.98,WSW,239,3.0,3.0,83,0.00,,,0.02,LWC V2.11 B50,2013-01-06 20:10:00,
2013-01-06 15:13:00,34.9,30.3,29.98,WNW,292,0.0,3.0,83,0.00,,,0.02,LWC V2.11 B50,2013-01-06 20:13:00,
2013-01-06 15:18:00,34.8,30.5,29.98,West,281,0.0,1.0,84,0.00,,,0.02,LWC V2.11 B50,2013-01-06 20:18:00,
2013-01-06 15:23:00,34.8,30.5,29.98,WSW,239,0.0,3.0,84,0.00,,,0.02,LWC V2.11 B50,2013-01-06 20:23:00,
2013-01-06 15:28:00,34.8,30.5,29.98,WSW,245,1.0,8.0,84,0.00,,,0.02,LWC V2.11 B50,2013-01-06 20:28:00,
2013-01-06 15:33:00,34.7,30.4,29.99,SW,214,0.0,2.0,84,0.00,,,0.02,LWC V2.11 B50,2013-01-06 20:33:00,
2013-01-06 15:38:00,34.7,30.4,29.99,West,266,1.0,4.0,84,0.00,,,0.02,LWC V2.11 B50,2013-01-06 20:38:00,
2013-01-06 15:43:00,34.6,30.6,29.99,WSW,257,0.0,3.0,85,0.00,,,0.02,LWC V2.11 B50,2013-01-06 20:43:00,
2013-01-06 15:48:00,34.6,30.6,29.99,West,261,0.0,1.0,85,0.00,,,0.02,LWC V2.11 B50,2013-01-06 20:48:00,
2013-01-06 15:53:00,34.5,30.5,29.99,SW,231,0.0,2.0,85,0.00,,,0.02,LWC V2.11 B50,2013-01-06 20:53:00,
2013-01-06 15:58:00,34.5,30.5,29.99,WSW,249,2.0,3.0,85,0.00,,,0.02,LWC V2.11 B50,2013-01-06 20:58:00,
2013-01-06 16:03:00,34.4,30.7,29.99,WSW,245,0.0,2.0,86,0.00,,,0.02,LWC V2.11 B50,2013-01-06 21:03:00,
2013-01-06 16:07:00,34.4,30.7,29.99,SW,229,0.0,3.0,86,0.00,,,0.02,LWC V2.11 B50,2013-01-06 21:07:00,
2013-01-06 16:12:00,34.3,30.8,29.99,WSW,253,0.0,1.0,87,0.00,,,0.02,LWC V2.11 B50,2013-01-06 21:12:00,
2013-01-06 16:17:00,34.1,30.6,29.99,WSW,253,1.0,3.0,87,0.00,,,0.02,LWC V2.11 B50,2013-01-06 21:17:00,
2013-01-06 16:22:00,34.0,30.8,30.00,SSW,211,1.0,3.0,88,0.00,,,0.02,LWC V2.11 B50,2013-01-06 21:22:00,
2013-01-06 16:27:00,33.9,30.7,30.00,WSW,252,2.0,4.0,88,0.00,,,0.02,LWC V2.11 B50,2013-01-06 21:27:00,
2013-01-06 16:32:00,33.8,30.9,30.00,SW,233,1.0,1.0,89,0.00,,,0.02,LWC V2.11 B50,2013-01-06 21:32:00,
2013-01-06 16:37:00,33.7,30.8,30.00,West,271,1.0,3.0,89,0.00,,,0.02,LWC V2.11 B50,2013-01-06 21:37:00,
2013-01-06 16:42:00,33.6,30.7,30.00,West,267,0.0,1.0,89,0.00,,,0.02,LWC V2.11 B50,2013-01-06 21:42:00,
2013-01-06 16:47:00,33.5,30.9,30.00,SW,228,0.0,3.0,90,0.00,,,0.02,LWC V2.11 B50,2013-01-06 21:47:00,
2013-01-06 16:52:00,33.4,30.8,30.01,West,262,1.0,2.0,90,0.00,,,0.02,LWC V2.11 B50,2013-01-06 21:52:00,
2013-01-06 16:57:00,33.4,30.8,30.01,West,266,2.0,3.0,90,0.00,,,0.02,LWC V2.11 B50,2013-01-06 21:57:00,
2013-01-06 17:02:00,33.4,30.8,30.01,West,277,2.0,4.0,90,0.00,,,0.02,LWC V2.11 B50,2013-01-06 22:02:00,
2013-01-06 17:07:00,33.4,30.8,30.01,SW,231,2.0,5.0,90,0.00,,,0.02,LWC V2.11 B50,2013-01-06 22:07:00,
2013-01-06 17:12:00,33.4,30.8,30.02,West,259,4.0,4.0,90,0.00,,,0.02,LWC V2.11 B50,2013-01-06 22:12:00,
2013-01-06 17:17:00,33.4,31.1,30.02,WNW,300,2.0,10.0,91,0.00,,,0.02,LWC V2.11 B50,2013-01-06 22:17:00,
2013-01-06 17:22:00,33.4,31.1,30.02,West,271,2.0,8.0,91,0.00,,,0.02,LWC V2.11 B50,2013-01-06 22:22:00,
2013-01-06 17:27:00,33.4,31.1,30.02,WSW,239,3.0,3.0,91,0.00,,,0.02,LWC V2.11 B50,2013-01-06 22:27:00,
2013-01-06 17:32:00,33.4,31.1,30.03,NW,320,0.0,5.0,91,0.00,,,0.02,LWC V2.11 B50,2013-01-06 22:32:00,
2013-01-06 17:37:00,33.4,31.1,30.03,SW,233,3.0,4.0,91,0.00,,,0.02,LWC V2.11 B50,2013-01-06 22:37:00,
2013-01-06 17:42:00,33.5,31.2,30.03,WNW,298,8.0,10.0,91,0.00,,,0.02,LWC V2.11 B50,2013-01-06 22:42:00,
2013-01-06 17:47:00,33.4,31.1,30.03,WSW,256,1.0,1.0,91,0.00,,,0.02,LWC V2.11 B50,2013-01-06 22:47:00,
2013-01-06 17:52:00,33.4,31.1,30.03,West,277,0.0,4.0,91,0.00,,,0.02,LWC V2.11 B50,2013-01-06 22:52:00,
2013-01-06 17:57:00,33.4,31.1,30.03,SW,236,1.0,5.0,91,0.00,,,0.02,LWC V2.11 B50,2013-01-06 22:57:00,
2013-01-06 18:02:00,33.3,31.0,30.03,WSW,256,2.0,7.0,91,0.00,,,0.02,LWC V2.11 B50,2013-01-06 23:02:00,
2013-01-06 18:07:00,33.3,31.0,30.04,NW,314,0.0,3.0,91,0.00,,,0.02,LWC V2.11 B50,2013-01-06 23:07:00,
2013-01-06 18:12:00,33.3,31.0,30.04,WSW,243,4.0,6.0,91,0.00,,,0.02,LWC V2.11 B50,2013-01-06 23:12:00,
2013-01-06 18:17:00,33.2,30.9,30.04,West,278,1.0,5.0,91,0.00,,,0.02,LWC V2.11 B50,2013-01-06 23:17:00,
2013-01-06 18:22:00,33.2,31.1,30.05,West,263,2.0,6.0,92,0.00,,,0.02,LWC V2.11 B50,2013-01-06 23:22:00,
2013-01-06 18:27:00,33.2,31.1,30.05,WNW,283,2.0,4.0,92,0.00,,,0.02,LWC V2.11 B50,2013-01-06 23:27:00,
2013-01-06 18:32:00,33.2,31.1,30.05,WSW,250,0.0,2.0,92,0.00,,,0.02,LWC V2.11 B50,2013-01-06 23:32:00,
2013-01-06 18:37:00,33.2,31.1,30.06,WNW,289,4.0,5.0,92,0.00,,,0.02,LWC V2.11 B50,2013-01-06 23:37:00,
2013-01-06 18:42:00,33.1,31.0,30.06,WNW,283,4.0,4.0,92,0.00,,,0.02,LWC V2.11 B50,2013-01-06 23:42:00,
2013-01-06 18:47:00,33.1,31.0,30.06,WSW,256,2.0,2.0,92,0.00,,,0.02,LWC V2.11 B50,2013-01-06 23:47:00,
2013-01-06 18:52:00,33.1,31.0,30.06,WNW,295,2.0,4.0,92,0.00,,,0.02,LWC V2.11 B50,2013-01-06 23:52:00,
2013-01-06 18:57:00,33.2,31.1,30.07,NNE,33,0.0,1.0,92,0.00,,,0.02,LWC V2.11 B50,2013-01-06 23:57:00,
2013-01-06 19:02:00,33.1,31.0,30.07,West,267,3.0,7.0,92,0.00,,,0.02,LWC V2.11 B50,2013-01-07 00:02:00,
2013-01-06 19:07:00,33.1,31.0,30.07,WSW,245,1.0,2.0,92,0.00,,,0.02,LWC V2.11 B50,2013-01-07 00:07:00,
2013-01-06 19:12:00,33.1,31.0,30.07,WNW,291,3.0,4.0,92,0.00,,,0.02,LWC V2.11 B50,2013-01-07 00:12:00,
2013-01-06 19:17:00,33.1,31.0,30.07,WNW,288,4.0,4.0,92,0.00,,,0.02,LWC V2.11 B50,2013-01-07 00:17:00,
2013-01-06 19:22:00,33.1,31.0,30.07,WNW,302,0.0,5.0,92,0.00,,,0.02,LWC V2.11 B50,2013-01-07 00:22:00,
2013-01-06 19:27:00,33.1,31.0,30.07,West,280,0.0,4.0,92,0.00,,,0.02,LWC V2.11 B50,2013-01-07 00:27:00,
2013-01-06 19:32:00,33.0,30.9,30.07,West,265,1.0,2.0,92,0.00,,,0.02,LWC V2.11 B50,2013-01-07 00:32:00,
2013-01-06 19:37:00,33.0,30.9,30.08,West,280,2.0,2.0,92,0.00,,,0.02,LWC V2.11 B50,2013-01-07 00:37:00,
2013-01-06 19:42:00,32.9,30.8,30.08,West,278,2.0,2.0,92,0.00,,,0.02,LWC V2.11 B50,2013-01-07 00:42:00,
2013-01-06 19:47:00,32.8,31.0,30.08,WSW,238,1.0,5.0,93,0.00,,,0.02,LWC V2.11 B50,2013-01-07 00:47:00,
2013-01-06 19:52:00,32.8,31.0,30.08,NW,309,1.0,3.0,93,0.00,,,0.02,LWC V2.11 B50,2013-01-07 00:52:00,
2013-01-06 19:58:00,32.9,30.8,30.08,WNW,296,2.0,8.0,92,0.00,,,0.02,LWC V2.11 B50,2013-01-07 00:58:00,
2013-01-06 20:03:00,32.9,30.8,30.08,WNW,301,3.0,7.0,92,0.00,,,0.02,LWC V2.11 B50,2013-01-07 01:03:00,
2013-01-06 20:08:00,32.9,30.6,30.09,WNW,302,2.0,10.0,91,0.00,,,0.02,LWC V2.11 B50,2013-01-07 01:08:00,
2013-01-06 20:13:00,32.9,30.6,30.09,West,271,3.0,6.0,91,0.00,,,0.02,LWC V2.11 B50,2013-01-07 01:13:00,
2013-01-06 20:18:00,32.9,30.6,30.09,NNW,328,2.0,11.0,91,0.00,,,0.02,LWC V2.11 B50,2013-01-07 01:18:00,
2013-01-06 20:23:00,32.9,30.6,30.09,WNW,289,5.0,5.0,91,0.00,,,0.02,LWC V2.11 B50,2013-01-07 01:23:00,
2013-01-06 20:28:00,32.9,30.6,30.09,WNW,297,2.0,4.0,91,0.00,,,0.02,LWC V2.11 B50,2013-01-07 01:28:00,
2013-01-06 20:33:00,32.9,30.6,30.10,North,6,2.0,4.0,91,0.00,,,0.02,LWC V2.11 B50,2013-01-07 01:33:00,
2013-01-06 20:38:00,32.9,30.6,30.10,West,276,4.0,6.0,91,0.00,,,0.02,LWC V2.11 B50,2013-01-07 01:38:00,
2013-01-06 20:43:00,32.8,30.5,30.10,SW,218,1.0,5.0,91,0.00,,,0.02,LWC V2.11 B50,2013-01-07 01:43:00,
2013-01-06 20:48:00,32.8,30.5,30.10,WSW,243,5.0,13.0,91,0.00,,,0.02,LWC V2.11 B50,2013-01-07 01:48:00,
2013-01-06 20:53:00,32.8,30.5,30.10,West,270,2.0,5.0,91,0.00,,,0.02,LWC V2.11 B50,2013-01-07 01:53:00,
2013-01-06 20:58:00,32.8,30.5,30.11,NW,316,1.0,11.0,91,0.00,,,0.02,LWC V2.11 B50,2013-01-07 01:58:00,
2013-01-06 21:03:00,32.8,30.5,30.11,WNW,290,5.0,8.0,91,0.00,,,0.03,LWC V2.11 B50,2013-01-07 02:03:00,
2013-01-06 21:08:00,32.7,30.4,30.11,WNW,284,4.0,8.0,91,0.00,,,0.03,LWC V2.11 B50,2013-01-07 02:08:00,
2013-01-06 21:13:00,32.7,30.4,30.11,NNW,333,3.0,4.0,91,0.00,,,0.03,LWC V2.11 B50,2013-01-07 02:13:00,
2013-01-06 21:18:00,32.6,30.3,30.11,West,261,5.0,7.0,91,0.00,,,0.03,LWC V2.11 B50,2013-01-07 02:18:00,
2013-01-06 21:23:00,32.5,30.2,30.11,WNW,284,3.0,8.0,91,0.00,,,0.03,LWC V2.11 B50,2013-01-07 02:23:00,
2013-01-06 21:28:00,32.5,30.2,30.11,NW,305,3.0,6.0,91,0.00,,,0.03,LWC V2.11 B50,2013-01-07 02:28:00,
2013-01-06 21:33:00,32.4,30.1,30.11,WNW,300,5.0,5.0,91,0.00,,,0.03,LWC V2.11 B50,2013-01-07 02:33:00,
2013-01-06 21:38:00,32.4,30.3,30.11,WNW,287,1.0,2.0,92,0.00,,,0.03,LWC V2.11 B50,2013-01-07 02:38:00,
2013-01-06 21:43:00,32.3,30.2,30.11,NW,306,3.0,10.0,92,0.00,,,0.03,LWC V2.11 B50,2013-01-07 02:43:00,
2013-01-06 21:48:00,32.4,30.3,30.12,West,259,5.0,10.0,92,0.00,,,0.03,LWC V2.11 B50,2013-01-07 02:48:00,
2013-01-06 21:53:00,32.4,30.3,30.12,WNW,292,1.0,4.0,92,0.00,,,0.03,LWC V2.11 B50,2013-01-07 02:53:00,
2013-01-06 21:58:00,32.3,30.2,30.12,WSW,255,3.0,4.0,92,0.00,,,0.03,LWC V2.11 B50,2013-01-07 02:58:00,
2013-01-06 22:03:00,32.3,30.2,30.13,WSW,253,4.0,13.0,92,0.00,,,0.03,LWC V2.11 B50,2013-01-07 03:03:00,
2013-01-06 22:08:00,32.3,30.5,30.13,WNW,291,0.0,2.0,93,0.00,,,0.03,LWC V2.11 B50,2013-01-07 03:08:00,
2013-01-06 22:13:00,32.3,30.5,30.13,NW,316,4.0,6.0,93,0.00,,,0.03,LWC V2.11 B50,2013-01-07 03:13:00,
2013-01-06 22:18:00,32.3,30.5,30.13,NNW,329,2.0,8.0,93,0.00,,,0.03,LWC V2.11 B50,2013-01-07 03:18:00,
2013-01-06 22:23:00,32.2,30.4,30.13,WNW,293,2.0,5.0,93,0.00,,,0.03,LWC V2.11 B50,2013-01-07 03:23:00,
2013-01-06 22:28:00,32.2,30.4,30.13,West,264,3.0,4.0,93,0.00,,,0.03,LWC V2.11 B50,2013-01-07 03:28:00,
2013-01-06 22:33:00,32.2,30.1,30.14,WNW,291,2.0,4.0,92,0.00,,,0.03,LWC V2.11 B50,2013-01-07 03:33:00,
2013-01-06 22:38:00,32.2,30.1,30.14,NW,314,2.0,6.0,92,0.00,,,0.03,LWC V2.11 B50,2013-01-07 03:38:00,
2013-01-06 22:43:00,32.2,30.1,30.14,WNW,293,1.0,4.0,92,0.00,,,0.03,LWC V2.11 B50,2013-01-07 03:43:00,
2013-01-06 22:48:00,32.2,30.1,30.14,WNW,294,1.0,4.0,92,0.00,,,0.03,LWC V2.11 B50,2013-01-07 03:48:00,
2013-01-06 22:53:00,32.1,30.0,30.15,WNW,285,1.0,5.0,92,0.00,,,0.03,LWC V2.11 B50,2013-01-07 03:53:00,
2013-01-06 22:58:00,32.1,30.0,30.15,WNW,301,1.0,3.0,92,0.00,,,0.03,LWC V2.11 B50,2013-01-07 03:58:00,
2013-01-06 23:03:00,32.1,30.0,30.15,West,269,2.0,3.0,92,0.00,,,0.03,LWC V2.11 B50,2013-01-07 04:03:00,
2013-01-06 23:08:00,32.1,30.0,30.15,WNW,301,4.0,6.0,92,0.00,,,0.03,LWC V2.11 B50,2013-01-07 04:08:00,
2013-01-06 23:13:00,32.1,30.0,30.16,NW,308,1.0,3.0,92,0.00,,,0.03,LWC V2.11 B50,2013-01-07 04:13:00,
2013-01-06 23:18:00,32.1,30.0,30.16,NNW,328,1.0,2.0,92,0.00,,,0.03,LWC V2.11 B50,2013-01-07 04:18:00,
2013-01-06 23:23:00,32.1,30.0,30.16,WNW,294,3.0,3.0,92,0.00,,,0.03,LWC V2.11 B50,2013-01-07 04:23:00,
2013-01-06 23:28:00,32.1,30.0,30.17,WSW,239,1.0,4.0,92,0.00,,,0.03,LWC V2.11 B50,2013-01-07 04:28:00,
2013-01-06 23:33:00,32.1,30.0,30.17,NW,305,0.0,5.0,92,0.00,,,0.03,LWC V2.11 B50,2013-01-07 04:33:00,
2013-01-06 23:38:00,32.1,30.0,30.17,WNW,287,2.0,6.0,92,0.00,,,0.03,LWC V2.11 B50,2013-01-07 04:38:00,
2013-01-06 23:43:00,32.1,30.0,30.18,NW,312,1.0,3.0,92,0.00,,,0.03,LWC V2.11 B50,2013-01-07 04:43:00,
2013-01-06 23:48:00,32.1,30.0,30.18,WNW,288,4.0,9.0,92,0.00,,,0.03,LWC V2.11 B50,2013-01-07 04:48:00,
2013-01-06 23:53:00,32.1,30.0,30.18,WNW,291,6.0,7.0,92,0.00,,,0.03,LWC V2.11 B50,2013-01-07 04:53:00,
2013-01-06 23:58:00,32.0,29.9,30.18,West,270,2.0,5.0,92,0.00,,,0.03,LWC V2.11 B50,2013-01-07 04:58:00,